Regional Weather Roundup
Issued by NWS

Home | Current Version | Previous Version | Graphics & Text | Print | Product List | Glossary On
Versions: 1 2 3 4 5 6 7 8 9 10 11 12 13 14 15 16 17 18 19 20 21 22 23 24 25 26 27 28 29 30 31 32 33 34 35 36 37 38 39 40 41 42 43 44 45 46 47 48 49 50
000
ASUS43 KFSD 291902
RWRSD

WEATHER ROUNDUP FOR SOUTH DAKOTA
NATIONAL WEATHER SERVICE SIOUX FALLS SD
200 PM CDT SUN MAY 29 2016

NOTE: "FAIR" INDICATES FEW OR NO CLOUDS BELOW 12,000 FEET WITH NO
SIGNIFICANT WEATHER AND/OR OBSTRUCTIONS TO VISIBILITY.


SDZ001>005-009-010-012>017-292000-
NORTHWEST AND NORTH CENTRAL SOUTH DAKOTA

CITY           SKY/WX    TMP DP  RH WIND       PRES   REMARKS
BUFFALO          N/A     74  44  34 S9        29.97F
FAITH            N/A     74  51  44 S13G21    30.04F
MOBRIDGE       SUNNY     75  50  41 VRB6      30.01F
$$

SDZ012>016-024>037-041>051-057-063-072>074-292000-
SOUTHWEST AND SOUTH CENTRAL SOUTH DAKOTA

CITY           SKY/WX    TMP DP  RH WIND       PRES   REMARKS
RAPID CTY ARPT SUNNY     72  50  45 S9        30.06F
PIERRE         SUNNY     75  52  44 VRB5      30.04F
CUSTER         PTSUNNY   64  43  46 SE13G24   30.15F
PHILIP         SUNNY     76  52  43 S13       30.04F
PINE RIDGE     SUNNY     77  49  37 S10G17    30.05F
WINNER         FAIR      77  52  41 E7        30.06F
$$

SDZ004>011-016>023-039-040-292000-
NORTHEAST SOUTH DAKOTA

CITY           SKY/WX    TMP DP  RH WIND       PRES   REMARKS
ABERDEEN       SUNNY     79  44  28 NW14G23   30.01F
WATERTOWN      SUNNY     76  50  40 NW14      30.03S
BROOKINGS      SUNNY     74  52  46 NW18      30.04S
SISSETON         N/A     75  46  35 N16       29.97F
$$

SDZ017-020-022-023-036>040-048>070-292000-
SOUTHEAST SOUTH DAKOTA

CITY           SKY/WX    TMP DP  RH WIND       PRES   REMARKS
SIOUX FALLS    MOSUNNY   76  55  48 NW12      30.06S
HURON          SUNNY     76  51  41 NW8       30.03F
MITCHELL       SUNNY     77  49  37 N5        30.06S
YANKTON        SUNNY     75  57  53 NW7       30.05F
$$

ABBREVIATIONS USED IN REMARKS
   TC - TEMPERATURE IN CELSIUS
  WCI - WIND CHILL INDEX
   HX - HEAT INDEX
  VSB - VISIBILITY





USA.gov is the U.S. government's official web portal to all federal, state and local government web resources and services.